User: anonymous   Login
Location: Unspecified
(0.0000°N, 0.0000°E)
Time: 06:35:50
(UTC+00:00)
Language:

NOAA 15 - Orbit

View from above orbital plane
View from above orbital plane
View from above satellite
View from above satellite

Ground track
Ground track

The orbit data is extracted from the following two-line orbital elements,

1 25338U 98030A   19345.61172081  .00000021  00000-0  27244-4 0  9995
2 25338  98.7344   6.4559 0011455  92.0429 268.2063 14.25942932122327
Epoch (UTC): 11 December 2019 14:40:52
Eccentricity: 0.0011455
inclination: 98.7344°
perigee height: 797 km
apogee height: 813 km
right ascension of ascending node: 6.4559°
argument of perigee: 92.0429°
revolutions per day: 14.25942932
mean anomaly at epoch: 268.2063°
orbit number at epoch: 12232

The dashed part of the orbit path shows where the satellite is in the earth's shadow,  

DLR